Location: *
(28.2408°N, 53.4600°E)
Time: 23:47:36
(UTC+00:00)

Cosmos 2297 Rocket - Pass Details

Date: 22 September 2019
Orbit: 841 x 842 km, 71.0° (Epoch: 14 October)

Event Time Altitude Azimuth Distance (km) Brightness Sun altitude
Rises 14:42:36 0° 179° (S) 3,381 5.3 -5.1°
Reaches altitude 10° 14:45:11 10° 172° (S) 2,449 4.5 -5.6°
Maximum altitude 14:50:22 40° 104° (ESE) 1,229 2.6 -6.8°
Drops below altitude 10° 14:55:35 10° 37° (NE) 2,460 4.3 -7.9°
Sets 14:58:10 0° 30° (NNE) 3,398 5.1 -8.5°
